Wind_Speed
12 16 20 25 29 32 35 36 37 39 39 39 41 45 49 52 53 54 54 49 47 46 47 46 43 40 40 42 39 39 39 34
12 14 16 19 21 22 24 27 33 39 42 42 44 44 45 47 49 49 51 53 50 47 47 48 48 46 43 42 46 43 45 40
13 13 14 18 21 24 25 24 24 28 29 33 41 46 48 48 48 48 49 50 49 52 53 45 47 48 48 46 42 42 43 41
8 5 6 10 13 19 22 24 22 20 22 23 24 24 28 33 38 44 50 51 50 50 51 48 46 40 43 45 42 43 41 42
19 18 10 6 6 10 13 16 19 25 27 28 28 30 34 37 39 40 38 40 42 48 49 45 45 47 45 36 36 36 37 37
12 14 16 12 10 12 16 18 20 24 26 30 33 35 38 43 46 48 46 44 45 41 46 42 35 34 37 37 33 31 33 36
12 13 14 15 15 13 12 12 15 21 24 29 37 37 22 32 41 42 45 42 40 35 38 38 33 26 27 27 27 30 31 31
15 18 19 20 20 21 15 12 12 11 18 14 8 12 19 17 14 20 24 18 19 24 26 22 28 23 25 27 29 28 24 27
17 19 20 20 21 22 17 7 2 9 7 1 15 10 9 4 3 19 9 5 7 14 17 18 21 19 18 12 16 21 17 12
16 15 14 17 19 17 3 3 2 5 3 7 3 11 6 13 13 11 16 10 11 11 4 5 7 10 8 5 5 6 9 8
12 7 8 10 15 21 5 2 2 1 9 11 10 9 7 7 11 18 19 19 11 11 10 9 6 4 4 6 6 7 8 10
4 3 5 8 9 18 24 23 15 20 20 17 20 18 13 22 22 20 18 16 13 10 7 5 3 3 4 5 6 8 10 12
3 4 5 8 12 12 17 22 21 20 26 26 22 23 20 17 15 13 11 9 8 6 6 4 3 0 2 4 7 8 11 14
10 14 13 13 16 18 19 19 17 18 18 17 16 16 14 12 10 9 8 7 8 7 6 6 6 6 6 6 8 11 16 20
10 10 10 11 11 13 15 15 15 15 15 15 13 12 11 10 8 7 7 6 4 5 5 4 6 8 11 13 16 18 19 22
4 5 5 7 7 8 9 10 11 11 11 11 11 11 10 10 9 8 7 6 5 5 6 8 9 11 14 16 17 20 23 25
4 4 5 6 6 7 8 9 10 9 9 8 8 8 8 8 8 9 9 10 10 10 11 13 15 17 19 22 24 25 26 28
4 4 4 3 3 2 2 1 1 2 3 4 5 6 8 9 10 11 13 14 15 16 17 18 20 21 22 24 25 27 29 31
10 10 9 8 7 7 8 9 11 12 13 13 14 15 15 15 16 17 17 18 19 20 22 23 25 26 27 29 30 32 33 32
17 17 17 16 16 16 17 18 18 19 20 20 21 21 21 21 22 22 23 24 25 26 27 28 29 31 32 34 35 36 37 38
Wind_Direction
249 248 248 250 250 250 250 248 248 247 248 251 252 252 252 252 256 255 254 256 255 254 256 258 259 259 263 267 270 274 275 279
263 259 256 255 256 256 256 255 254 252 251 250 250 250 251 253 255 255 256 254 253 255 258 257 257 259 259 258 261 266 269 270
291 269 255 248 251 255 258 256 256 254 255 254 256 255 253 253 255 256 256 258 258 257 253 255 257 258 259 261 260 261 262 267
347 318 270 244 242 247 251 246 246 251 246 249 252 255 255 253 256 257 256 255 257 259 262 261 254 260 262 263 264 265 267 268
11 14 2 333 281 259 265 265 260 254 260 264 259 257 258 258 256 253 252 254 256 256 255 258 262 259 257 264 268 269 271 271
2 5 9 12 354 311 288 273 271 274 270 265 259 266 270 268 264 261 255 250 252 254 251 250 254 257 266 268 260 264 273 280
2 2 357 347 338 329 321 308 287 276 279 283 279 284 279 277 262 253 246 245 250 256 248 244 246 259 254 266 268 272 275 275
344 346 346 338 335 336 336 299 303 302 301 306 305 308 272 300 276 243 240 234 248 230 234 236 239 253 249 251 256 257 268 280
333 332 333 336 333 330 338 308 341 344 353 353 318 313 322 295 116 179 142 196 224 186 201 217 233 245 239 262 265 272 279 296
333 331 342 4 354 344 30 185 91 26 47 10 60 27 11 98 143 148 187 195 161 166 149 214 234 214 212 226 250 274 273 278
326 338 19 27 39 48 151 193 164 61 38 21 33 13 124 185 127 116 98 99 108 121 128 126 126 166 221 243 250 249 257 279
324 16 34 24 57 74 76 77 86 88 74 79 84 80 102 101 95 96 100 102 107 110 120 132 158 210 230 245 258 277 286 290
39 18 33 70 84 91 88 86 84 87 93 87 88 89 94 103 107 112 115 123 130 135 125 118 114 157 303 299 310 311 308 311
83 96 100 93 95 97 97 93 85 81 85 90 90 89 89 85 87 88 94 102 107 119 105 78 56 35 11 348 337 330 324 323
92 99 103 100 95 92 90 91 87 86 87 88 87 86 85 83 80 76 75 72 69 57 39 26 3 348 336 335 330 324 322 319
103 108 112 114 108 106 104 101 98 97 94 91 89 85 79 72 65 59 55 49 33 9 354 338 323 318 318 314 317 322 324 324
124 134 141 131 120 114 106 99 93 91 85 79 71 62 52 44 35 29 24 13 3 351 347 346 343 337 332 330 328 326 325 323
224 204 187 167 149 148 157 168 293 324 329 330 333 337 343 345 344 342 342 339 336 336 338 334 331 328 325 323 323 323 322 321
260 265 270 267 264 269 274 281 290 299 306 310 313 315 316 316 316 317 318 319 319 320 320 320 318 318 318 319 319 318 317 319
254 257 258 260 265 269 272 276 279 284 288 291 294 295 296 298 299 301 303 305 306 308 309 310 311 312 313 314 315 315 317 319
Height
5689 5690 5690 5691 5693 5694 5695 5696 5698 5700 5702 5703 5705 5706 5708 5710 5712 5715 5719 5722 5725 5727 5729 5732 5735 5738 5740 5742 5742 5742 5742 5742
5686 5686 5687 5686 5686 5686 5687 5688 5689 5690 5692 5694 5695 5696 5698 5700 5702 5704 5707 5710 5714 5716 5718 5722 5724 5727 5729 5732 5733 5733 5732 5733
5681 5681 5681 5681 5681 5681 5682 5682 5682 5684 5684 5685 5685 5686 5688 5690 5691 5694 5697 5699 5702 5704 5707 5711 5714 5716 5718 5720 5722 5724 5724 5724
5678 5676 5676 5676 5676 5676 5676 5677 5678 5678 5678 5679 5679 5679 5679 5680 5681 5682 5685 5687 5691 5694 5696 5699 5703 5706 5708 5710 5712 5713 5713 5713
5675 5674 5673 5672 5672 5672 5672 5672 5672 5672 5673 5672 5672 5672 5671 5671 5671 5672 5674 5676 5679 5682 5686 5689 5692 5694 5698 5700 5702 5702 5703 5703
5677 5675 5673 5671 5669 5667 5666 5666 5666 5665 5664 5663 5662 5661 5660 5660 5659 5660 5663 5666 5669 5672 5675 5681 5685 5687 5688 5690 5693 5694 5695 5695
5678 5675 5673 5671 5669 5667 5664 5661 5660 5658 5657 5655 5653 5650 5648 5645 5641 5644 5648 5654 5661 5664 5667 5672 5678 5681 5682 5684 5685 5686 5687 5686
5677 5674 5671 5668 5665 5663 5660 5658 5656 5655 5653 5649 5648 5645 5643 5637 5631 5634 5644 5650 5654 5651 5660 5666 5672 5675 5676 5677 5678 5678 5678 5677
5677 5674 5670 5666 5662 5660 5657 5655 5654 5653 5650 5649 5646 5643 5639 5635 5635 5636 5640 5641 5647 5651 5658 5663 5666 5669 5670 5670 5672 5673 5673 5672
5676 5673 5669 5665 5662 5658 5656 5654 5653 5651 5651 5648 5645 5643 5641 5638 5640 5641 5643 5646 5649 5653 5654 5659 5662 5666 5668 5667 5668 5669 5670 5670
5675 5672 5669 5667 5664 5658 5656 5653 5652 5652 5651 5650 5648 5646 5646 5645 5644 5642 5644 5647 5652 5655 5659 5660 5663 5665 5666 5667 5667 5668 5666 5666
5673 5672 5671 5669 5667 5664 5659 5657 5655 5654 5654 5653 5652 5651 5651 5652 5652 5653 5654 5656 5657 5659 5661 5662 5663 5664 5665 5665 5665 5665 5664 5662
5675 5674 5673 5671 5670 5668 5665 5663 5662 5661 5659 5659 5660 5659 5659 5660 5659 5659 5659 5660 5660 5661 5661 5662 5663 5663 5664 5663 5662 5661 5661 5658
5676 5676 5676 5674 5673 5671 5669 5668 5667 5666 5666 5666 5665 5665 5665 5665 5665 5664 5664 5664 5663 5663 5663 5663 5663 5662 5661 5660 5660 5658 5656 5653
5680 5679 5678 5677 5676 5674 5673 5672 5671 5670 5669 5669 5668 5667 5667 5667 5666 5665 5665 5664 5664 5663 5663 5663 5662 5661 5659 5657 5655 5653 5650 5647
5683 5681 5681 5680 5678 5677 5676 5675 5674 5673 5672 5671 5671 5670 5669 5668 5668 5667 5665 5664 5663 5662 5660 5659 5658 5656 5654 5652 5650 5646 5643 5639
5683 5682 5681 5680 5680 5678 5677 5676 5675 5675 5674 5673 5672 5671 5670 5669 5668 5667 5665 5663 5661 5660 5657 5655 5653 5651 5649 5646 5643 5640 5637 5633
5683 5682 5681 5680 5679 5678 5677 5676 5676 5675 5673 5672 5671 5670 5668 5667 5665 5664 5663 5661 5659 5656 5654 5652 5650 5648 5645 5641 5638 5634 5631 5627
5680 5680 5679 5678 5677 5677 5676 5674 5673 5672 5671 5670 5668 5667 5665 5663 5662 5660 5658 5656 5654 5652 5650 5647 5645 5642 5639 5635 5631 5628 5624 5620
5675 5675 5674 5674 5673 5672 5671 5670 5669 5667 5666 5665 5663 5662 5660 5658 5657 5654 5652 5650 5648 5645 5643 5640 5638 5635 5632 5628 5624 5620 5615 5611